Showing default

IRIDE-MS2-HEO-7, 68981

Orbit data source: Space-Track

IRIDE-MS2-HEO-7, 68981 is an Italian payload satellite in SSO that was launched on Sun, 03 May 2026 UTC via an FALCON 9 launch vehicle from the Air Force Western Test Range (AFWTR). Payload-class satellites include a variety of spacecraft equipped with specific instruments for various scientific and technological missions. These include communications satellites like Starlink; space stations such as the ISS; scientific satellites like the Hubble; Earth observation satellites from companies like Planet Labs, Umbra, and HawkEye 360; GPS; miniature CubeSats for education and research; and military/defense satellites.

Loading next visibility...
Identifier
68981, 2026-100B
Orbit
SSO
Country
Flag of ITIT
Related business
Manufacturer
ArgoTec
Mission
Operational Civil Imaging
Bus & Motor
HAWK, Unknown motor
Mass
65 kg wet, 65 kg dry
Launch date (UTC)
2026-05-03 (5 months ago)
Launch vehicle
FALCON 9
Launch site
Air Force Western Test Range (AFWTR)
Object type
Payload
Rocket body
Debris
Shape & HBR
Box + 2 Pan, 3.0 m
Radar Cross Section
0.683 m², Medium (>0.1 m² and < 1m²)

Expand to show TLE details & history
Last TLE update: 6 hours ago

TLE from 6 hours ago
0 IRIDE-MS2-HEO-7
1 68981U 26100B   26266.20169156  .00001032  00000-0  10934-3 0  9999
2 68981  97.7222 161.6139 0004973 165.7865 194.3494 14.91228913 21301
Epoch: 2026-09-23T04:50Z
TLE epoch observation values (Epoch: 2026-09-23T04:50:26.150Z)
Latitude
-0.00008°
Longitude
86.94874°
Altitude
600.505 km
Speed
7.558 km/s
True Right ascension
10h 46m 27s
True Declination
0° 00' 00"
Sunlit
Object was in daylight at epoch
Visualization orbit readout
Latitude
Unknown
Longitude
Unknown
Altitude
Unknown
Speed
Unknown
Apparent Right ascension
Unknown
Apparent Declination
Unknown
Sunlit
N/A
Visualization observer readout
Local Sidereal Time
04:08:42
Azimuth
Unknown
Elevation
Unknown
Doppler factor
Unknown
Orbital elements
Apogee altitude
594.586 km
Perigee altitude
587.655 km
Semi-major axis
6,969.257 km
Eccentricity
0.0005
Inclination
97.7222°
RAAN
161.6139°
Arg. of periapsis
165.7865°
True anomaly
194.33529°
Mean anomaly
194.3494°
Eccentric anomaly
194.34234°
Mean motion
3.73047 °/min
Orbital period
96.5 mins
BSTAR
0.00010934
Loading maneuver chart data...
Computing Atmospheric mass density...
Loading historical data...
Loading historical data...
Loading historical data...
Loading historical data...
Loading historical data...
Loading historical data...
Loading historical data...

Documentation

Showing up to 5 results
|